OneWeb SL0393

operational
NORAD ID: 50473 Int'l Des: 2021-132 Owner: ONEWEBN Country: UK Constellation: oneweb
LEOCIRCULARPOLARONEWEB_TYPE

Über OneWeb SL0393

Beschreibung wird geladen...

Live-Position

3D-Globus wird geladen...

Nächste Überflüge

Höhenverlauf

Altitude vs Time

uPlot chart will show altitude changes over time

Zweizeiliger Elementsatz

1 50473U 21132E 25297.87942058 .00000104 00000-0 23511-3 0 9996
2 50473 87.9123 52.6462 0001545 94.8903 265.2405 13.17650871187126
Epoch: 24. Okt. 2025 • Age: 10 hours

Aktueller Status

Höhe 1197.8 km
Geschwindigkeit 7.25 km/s
Subsatellitenpunkt -6.88°S, 91.44°E
Startdatum 27. Dez. 2021
Alter 3.8 years
Typ internet

Technische Details

Klassifizierung Payload
Masse 148.00 kg
Trockenmasse 140.00 kg
Gesamtmasse 148.00 kg
Länge 1.30 m
Durchmesser 1.00 m
Spannweite 5.00 m
Form Trapezoid+2 pan
Hersteller ONEWUS
Bus-Typ ARROW
Phasenstatus In Orbit
Besitzer/Staat ONEWEBN/UK

Große Konstellationen

Loading constellations...